Flag for U.S.A. Weather past 2 weeks in Paramus, New Jersey, U.S.A.

Now
73 °F

Mostly cloudy.


Feels Like: 75 °F
Forecast: 71 / 87 °F
Wind: 5 mph from South

Location: Teterboro Airport

Current Time: Aug 31, 2014 at 6:20:59 AM

Latest Report: Aug 31, 2014 at 5:51 AM


Visibility: 10 mi

Pressure: 30.09 "Hg

Humidity: 74%

Dew point: 64 °F

Location of ParamusLocation

Historic Weather in Paramus — Graph

°F

Paramus temperature yesterday

Maximum temperature yesterday: 78 °F (at 12:51 PM)
Minimum temperature yesterday: 59 °F (at 5:51 AM)
Average temperature yesterday: 71 °F

Past Weeks' High & Low Weather Summary

 TemperatureHumidityPressure
High92 °F (Aug 27, 4:51 PM)90% (Aug 22, 4:51 AM)30.27 "Hg (Aug 22, 4:51 AM)
Low59 °F (Aug 16, 5:51 AM)31% (Aug 16, 12:51 PM)29.80 "Hg (Aug 17, 3:51 PM)
Average73 °F59%30.02 "Hg
* Reported Aug 16 4:51 AM — Aug 31 4:51 AM, Paramus, Weather by CustomWeather, © 2014

Note: Actual official high and low records may vary slightly from our data, if they occured in-between our weather recording intervals... More about our weather records

Advertising

Paramus weather history for previous 24 hours

 ConditionsComfort  
Time TempWeatherWind HumidityBarometerVisibility
4:51 AM
Aug 31
73 °FMostly cloudy.3 mph76%30.10 "Hg10 mi
3:51 AM73 °FMostly cloudy.5 mph76%30.11 "Hg10 mi
2:51 AM72 °FPassing clouds.6 mph78%30.12 "Hg10 mi
1:51 AM73 °FPassing clouds.6 mph76%30.13 "Hg10 mi
12:51 AM73 °FOvercast.7 mph76%30.14 "Hg10 mi
11:51 PM
Aug 30
74 °FOvercast.9 mph71%30.14 "Hg10 mi
10:51 PM74 °FPassing clouds.8 mph67%30.14 "Hg10 mi
9:51 PM74 °FOvercast.7 mph74%30.14 "Hg10 mi
8:51 PM75 °FOvercast.9 mph69%30.14 "Hg10 mi
7:51 PM75 °FOvercast.9 mph69%30.14 "Hg10 mi
6:51 PM75 °FOvercast.10 mph69%30.14 "Hg10 mi
5:51 PM76 °FOvercast.10 mph64%30.15 "Hg10 mi
4:51 PM76 °FOvercast.7 mph64%30.16 "Hg10 mi
3:51 PM77 °FOvercast.12 mph58%30.17 "Hg10 mi
2:51 PM78 °FOvercast.7 mph52%30.19 "Hg10 mi
1:51 PM77 °FOvercast.7 mph52%30.21 "Hg10 mi
12:51 PM78 °FMostly cloudy.10 mph48%30.22 "Hg10 mi
11:51 AM77 °FScattered clouds.9 mph48%30.23 "Hg10 mi
10:51 AM75 °FPassing clouds.9 mph52%30.24 "Hg10 mi
9:51 AM73 °FSunny.8 mph55%30.25 "Hg10 mi
8:51 AM70 °FSunny.No wind61%30.26 "Hg10 mi
7:51 AM65 °FSunny.No wind73%30.26 "Hg10 mi
6:51 AM59 °FClear.3 mph84%30.27 "Hg10 mi
Weather by CustomWeather, © 2014

See weather overviewHow to use our weather pages